• en Suisse
  • Liste des pays
  • À 7 jours
  • Température de l'eau
  • Carte satellitaire
  • Carte météo
  • Widgets météo
  • user-avatar
    Se connecter

    Météo par heure à Atamanovka

    Ce jour, 22 Juillet, Dimanche

    Heure Température Précipitation Vent Pression Humidité
    00:00 +14°C° 0 mm 4 m/s 748 mmHg 71%
    01:00 +13°C° 0 mm 4 m/s 748 mmHg 70%
    02:00 +13°C° 0 mm 4 m/s 748 mmHg 71%
    03:00 +12°C° 0 mm 4 m/s 749 mmHg 71%
    04:00 +11°C° 0 mm 3 m/s 749 mmHg 78%
    05:00 +12°C° 0 mm 3 m/s 749 mmHg 74%
    06:00 +13°C° 0 mm 4 m/s 749 mmHg 71%
    07:00 +14°C° 0 mm 5 m/s 749 mmHg 67%
    08:00 +16°C° 0 mm 5 m/s 749 mmHg 61%
    09:00 +17°C° 0 mm 5 m/s 749 mmHg 55%
    10:00 +19°C° 0 mm 6 m/s 749 mmHg 49%
    11:00 +20°C° 0 mm 5 m/s 749 mmHg 47%
    12:00 +21°C° 0 mm 5 m/s 749 mmHg 45%
    13:00 +22°C° 0 mm 5 m/s 749 mmHg 44%
    14:00 +22°C° 0 mm 5 m/s 749 mmHg 44%
    15:00 +22°C° 0 mm 5 m/s 749 mmHg 45%
    16:00 +22°C° 0 mm 4 m/s 749 mmHg 46%
    17:00 +21°C° 0 mm 4 m/s 749 mmHg 52%
    18:00 +20°C° 0 mm 3 m/s 749 mmHg 58%
    19:00 +19°C° 0 mm 3 m/s 749 mmHg 64%
    20:00 +17°C° 0 mm 3 m/s 750 mmHg 67%
    21:00 +16°C° 0 mm 2 m/s 750 mmHg 71%
    22:00 +14°C° 0 mm 2 m/s 750 mmHg 74%
    23:00 +13°C° 0 mm 2 m/s 751 mmHg 77%

    Demain, 23 Juillet, Lundi

    Heure Température Précipitation Vent Pression Humidité
    00:00 +12°C° 0 mm 2 m/s 751 mmHg 79%
    01:00 +10°C° 0 mm 2 m/s 751 mmHg 82%
    02:00 +10°C° 0 mm 2 m/s 751 mmHg 83%
    03:00 +11°C° 0 mm 1 m/s 751 mmHg 84%
    04:00 +10°C° 0 mm 1 m/s 752 mmHg 85%
    05:00 +12°C° 0 mm 1 m/s 752 mmHg 80%
    06:00 +14°C° 0 mm 2 m/s 752 mmHg 75%
    07:00 +15°C° 0 mm 2 m/s 752 mmHg 69%
    08:00 +17°C° 0 mm 2 m/s 752 mmHg 63%
    09:00 +19°C° 0 mm 2 m/s 752 mmHg 56%
    10:00 +21°C° 0 mm 2 m/s 752 mmHg 49%
    11:00 +23°C° 0 mm 2 m/s 752 mmHg 47%
    12:00 +24°C° 0 mm 2 m/s 751 mmHg 44%
    13:00 +25°C° 0 mm 2 m/s 751 mmHg 42%
    14:00 +25°C° 0 mm 2 m/s 751 mmHg 43%
    15:00 +26°C° 0 mm 2 m/s 751 mmHg 44%
    16:00 +26°C° 0 mm 2 m/s 751 mmHg 46%
    17:00 +25°C° 0 mm 2 m/s 751 mmHg 53%
    18:00 +24°C° 0 mm 1 m/s 750 mmHg 61%
    19:00 +23°C° 0 mm 1 m/s 750 mmHg 68%
    20:00 +21°C° 0 mm 1 m/s 750 mmHg 72%
    21:00 +20°C° 0 mm 1 m/s 751 mmHg 76%
    22:00 +18°C° 0 mm 1 m/s 751 mmHg 80%
    23:00 +18°C° 0 mm 1 m/s 751 mmHg 82%

    Après-demain, 24 Juillet, Mardi

    Heure Température Précipitation Vent Pression Humidité
    00:00 +16°C° 0 mm 1 m/s 751 mmHg 84%
    01:00 +16°C° 0 mm 1 m/s 751 mmHg 86%
    02:00 +15°C° 0 mm 1 m/s 751 mmHg 87%
    03:00 +15°C° 0 mm 1 m/s 751 mmHg 88%
    04:00 +15°C° 0 mm 1 m/s 752 mmHg 90%
    05:00 +16°C° 0 mm 1 m/s 752 mmHg 84%
    06:00 +19°C° 0 mm 1 m/s 752 mmHg 79%
    07:00 +21°C° 0 mm 1 m/s 752 mmHg 74%
    08:00 +23°C° 0 mm 1 m/s 752 mmHg 68%
    09:00 +24°C° 0 mm 2 m/s 752 mmHg 61%
    10:00 +26°C° 0 mm 2 m/s 752 mmHg 55%
    11:00 +27°C° 0 mm 3 m/s 752 mmHg 52%
    12:00 +28°C° 0 mm 3 m/s 752 mmHg 48%
    13:00 +29°C° 0 mm 3 m/s 752 mmHg 45%
    14:00 +29°C° 0 mm 3 m/s 751 mmHg 46%
    15:00 +29°C° 0 mm 3 m/s 751 mmHg 47%
    16:00 +30°C° 0 mm 3 m/s 751 mmHg 48%
    17:00 +28°C° 0 mm 3 m/s 751 mmHg 56%
    18:00 +27°C° 0 mm 2 m/s 751 mmHg 63%
    19:00 +26°C° 0 mm 2 m/s 751 mmHg 70%
    20:00 +24°C° 0 mm 2 m/s 752 mmHg 73%
    21:00 +21°C° 0 mm 2 m/s 752 mmHg 76%
    22:00 +20°C° 0 mm 2 m/s 752 mmHg 79%
    23:00 +19°C° 0 mm 2 m/s 752 mmHg 79%

    25 Juillet, Mercredi

    Heure Température Précipitation Vent Pression Humidité
    00:00 +19°C° 0 mm 2 m/s 752 mmHg 79%
    01:00 +18°C° 0 mm 2 m/s 752 mmHg 78%
    02:00 +18°C° 0 mm 2 m/s 752 mmHg 78%
    03:00 +19°C° 0 mm 1 m/s 752 mmHg 78%
    04:00 +18°C° 0 mm 1 m/s 753 mmHg 78%
    05:00 +20°C° 0 mm 1 m/s 753 mmHg 76%
    06:00 +21°C° 0 mm 1 m/s 753 mmHg 74%
    07:00 +22°C° 0 mm 1 m/s 753 mmHg 72%
    08:00 +24°C° 0 mm 2 m/s 753 mmHg 65%
    09:00 +26°C° 0 mm 2 m/s 753 mmHg 59%
    10:00 +28°C° 0 mm 2 m/s 753 mmHg 52%
    11:00 +29°C° 0 mm 2 m/s 753 mmHg 48%
    12:00 +30°C° 0 mm 2 m/s 753 mmHg 43%
    13:00 +31°C° 0 mm 2 m/s 753 mmHg 39%
    14:00 +31°C° 0 mm 2 m/s 753 mmHg 40%
    15:00 +31°C° 0 mm 2 m/s 753 mmHg 42%
    16:00 +31°C° 0 mm 2 m/s 753 mmHg 43%
    17:00 +29°C° 0 mm 2 m/s 753 mmHg 50%
    18:00 +28°C° 0 mm 2 m/s 753 mmHg 58%
    19:00 +27°C° 0 mm 1 m/s 753 mmHg 65%
    20:00 +25°C° 0 mm 1 m/s 753 mmHg 68%
    21:00 +23°C° 0 mm 1 m/s 754 mmHg 70%
    22:00 +22°C° 0 mm 1 m/s 754 mmHg 73%
    23:00 +21°C° 0 mm 1 m/s 754 mmHg 75%

    26 Juillet, Jeudi

    Heure Température Précipitation Vent Pression Humidité
    00:00 +20°C° 0 mm 1 m/s 754 mmHg 77%
    01:00 +20°C° 0 mm 1 m/s 754 mmHg 79%
    02:00 +20°C° 0 mm 1 m/s 754 mmHg 80%
    03:00 +18°C° 0 mm 0 m/s 754 mmHg 80%
    04:00 +17°C° 0 mm 0 m/s 754 mmHg 80%
    05:00 +19°C° 0 mm 0 m/s 755 mmHg 77%
    06:00 +20°C° 0 mm 0 m/s 755 mmHg 75%
    07:00 +21°C° 0 mm 0 m/s 755 mmHg 72%
    08:00 +23°C° 0 mm 0 m/s 755 mmHg 66%
    09:00 +27°C° 0 mm 1 m/s 755 mmHg 59%
    10:00 +29°C° 0 mm 1 m/s 755 mmHg 53%
    11:00 +30°C° 0 mm 1 m/s 755 mmHg 49%
    12:00 +31°C° 0 mm 1 m/s 755 mmHg 46%
    13:00 +31°C° 0 mm 1 m/s 754 mmHg 42%
    14:00 +31°C° 0 mm 1 m/s 754 mmHg 44%
    15:00 +31°C° 0 mm 1 m/s 754 mmHg 46%
    16:00 +31°C° 0 mm 1 m/s 754 mmHg 48%
    17:00 +29°C° 0 mm 1 m/s 754 mmHg 54%
    18:00 +28°C° 0 mm 1 m/s 754 mmHg 60%
    19:00 +27°C° 0 mm 1 m/s 754 mmHg 66%
    20:00 +25°C° 0 mm 1 m/s 754 mmHg 68%
    21:00 +24°C° 0 mm 1 m/s 754 mmHg 70%
    22:00 +22°C° 0 mm 1 m/s 754 mmHg 71%
    23:00 +22°C° 0 mm 1 m/s 754 mmHg 71%

    27 Juillet, Vendredi

    Heure Température Précipitation Vent Pression Humidité
    00:00 +21°C° 0 mm 1 m/s 754 mmHg 71%
    01:00 +21°C° 0 mm 1 m/s 754 mmHg 72%
    02:00 +20°C° 0 mm 1 m/s 754 mmHg 71%
    03:00 +20°C° 0 mm 1 m/s 754 mmHg 71%
    04:00 +20°C° 0 mm 1 m/s 755 mmHg 70%
    05:00 +21°C° 0 mm 1 m/s 755 mmHg 70%
    06:00 +22°C° 0 mm 1 m/s 755 mmHg 69%
    07:00 +23°C° 0 mm 1 m/s 755 mmHg 69%
    08:00 +24°C° 0 mm 1 m/s 755 mmHg 67%
    09:00 +25°C° 0 mm 1 m/s 755 mmHg 64%
    10:00 +27°C° 0 mm 1 m/s 755 mmHg 62%
    11:00 +28°C° 0 mm 1 m/s 755 mmHg 58%
    12:00 +29°C° 0 mm 2 m/s 754 mmHg 53%
    13:00 +30°C° 0 mm 2 m/s 754 mmHg 49%
    14:00 +31°C° 0 mm 2 m/s 754 mmHg 47%
    15:00 +31°C° 0 mm 2 m/s 754 mmHg 44%
    16:00 +31°C° 0 mm 2 m/s 754 mmHg 42%
    17:00 +30°C° 0 mm 2 m/s 754 mmHg 49%
    18:00 +28°C° 0 mm 2 m/s 754 mmHg 56%
    19:00 +27°C° 0 mm 1 m/s 754 mmHg 63%
    20:00 +26°C° 0 mm 1 m/s 754 mmHg 63%
    21:00 +25°C° 0 mm 1 m/s 754 mmHg 63%
    22:00 +24°C° 0 mm 1 m/s 754 mmHg 63%
    23:00 +23°C° 0 mm 1 m/s 754 mmHg 64%
    Voir plus